Zurück zum Katalog

FENGYUN 1C DEB

AktivLEO
NORAD 35203·DEBRIS·🇨🇳 China

Gestartet May 10, 1999 von Taiyuan Satellite Launch Center

Loading…

Nächste Überflüge (nächste 24 Stunden)

TLE

AktuellSource: Space-Track

Epoche: Sep 14, 2026, 06:25 UTC

1 35203U 99025DPK 26257.26765380  .00001188  00000-0  13520-2 0  9998
2 35203 102.0836 275.5085 0514163 277.7930  76.5128 13.27363646633059

Verfolge FENGYUN 1C DEB in Echtzeit mit AllMySat

Download on the App Store